VIR46K KJFK-EGLL

Flight info

Callsign VIR46K
Flight time N/A
Altitude 39000
Route MERIT DCT HFD DCT PUT DCT WITCH DCT ALLEX N535B UMESI/M085F400 NATU OLGON/N0491F410 DCT ENJEX DCT AVZAC DCT INFEC DCT JETZI DCT AMFUL DCT ORZEB/N0465F230 P2 SIRIC
Aircraft A35K/H-SDE2E3GHIJ1J3J4J5LM1ORWXY/LB1D1

Departure

Time 2026-05-08 23:57
Airport John F. Kennedy International Airport (KJFK)

Arrival

Time N/A
Airport London Heathrow Airport (EGLL)
Time Latitude Longitude Altitude Speed Heading
2026-05-08 23:19 40.64222 -73.77857 26 ft 0 kts
2026-05-08 23:39 40.64198 -73.77861 25 ft 4 kts
2026-05-08 23:39 40.64171 -73.77865 24 ft 4 kts
2026-05-08 23:40 40.64144 -73.77867 25 ft 4 kts
2026-05-08 23:40 40.64117 -73.77866 25 ft 4 kts 351°
2026-05-08 23:40 40.64098 -73.77859 24 ft 4 kts 321°
2026-05-08 23:40 40.64090 -73.77848 24 ft 1 kts 241°
2026-05-08 23:48 40.64078 -73.77874 26 ft 6 kts 233°
2026-05-08 23:48 40.64014 -73.77886 26 ft 14 kts 154°
2026-05-08 23:48 40.63910 -73.77808 26 ft 19 kts 146°
2026-05-08 23:48 40.63800 -73.77708 28 ft 17 kts 144°
2026-05-08 23:49 40.63743 -73.77664 29 ft 7 kts 188°
2026-05-08 23:49 40.63686 -73.77666 30 ft 9 kts 162°
2026-05-08 23:49 40.63640 -73.77598 32 ft 11 kts 124°
2026-05-08 23:49 40.63596 -73.77504 27 ft 13 kts 120°
2026-05-08 23:50 40.63546 -73.77394 27 ft 15 kts 121°
2026-05-08 23:50 40.63486 -73.77264 26 ft 18 kts 121°
2026-05-08 23:50 40.63418 -73.77112 26 ft 20 kts 121°
2026-05-08 23:50 40.63349 -73.76968 31 ft 13 kts 142°
2026-05-08 23:51 40.63257 -73.76948 31 ft 15 kts 179°
2026-05-08 23:51 40.63145 -73.76956 29 ft 17 kts 190°
2026-05-08 23:51 40.63027 -73.77024 32 ft 20 kts 211°
2026-05-08 23:51 40.62962 -73.77075 27 ft 0 kts 211°
2026-05-08 23:53 40.62955 -73.77080 27 ft 4 kts 211°
2026-05-08 23:53 40.62904 -73.77121 27 ft 8 kts 210°
2026-05-08 23:54 40.62899 -73.77124 27 ft 0 kts 210°
2026-05-08 23:55 40.62879 -73.77140 28 ft 8 kts 211°
2026-05-08 23:55 40.62830 -73.77208 28 ft 11 kts 261°
2026-05-08 23:56 40.62850 -73.77285 28 ft 0 kts 299°
2026-05-08 23:56 40.62851 -73.77286 28 ft 1 kts 299°
2026-05-08 23:57 40.62898 -73.77395 30 ft 41 kts 301°
2026-05-08 23:57 40.63178 -73.78013 30 ft 113 kts 301°
2026-05-08 23:57 40.63697 -73.79157 31 ft 173 kts 299°
2026-05-08 23:57 40.64255 -73.80504 809 ft 159 kts 291°
2026-05-08 23:58 40.64168 -73.81960 1466 ft 175 kts 244°
2026-05-08 23:58 40.63308 -73.83263 1894 ft 198 kts 226°
2026-05-08 23:58 40.62321 -73.84577 2565 ft 204 kts 231°
2026-05-08 23:58 40.61406 -73.85979 3442 ft 202 kts 234°
2026-05-08 23:59 40.60423 -73.87325 4246 ft 205 kts 221°
2026-05-08 23:59 40.59108 -73.88113 4797 ft 217 kts 195°
2026-05-08 23:59 40.57497 -73.87915 4982 ft 257 kts 166°
2026-05-08 23:59 40.55931 -73.86573 5019 ft 279 kts 132°
2026-05-09 00:00 40.55079 -73.84312 5022 ft 281 kts 90°
2026-05-09 00:00 40.55441 -73.81906 5022 ft 264 kts 45°
2026-05-09 00:00 40.56680 -73.80089 4991 ft 273 kts 29°
2026-05-09 00:00 40.58168 -73.78434 5223 ft 290 kts 25°
2026-05-09 00:01 40.59778 -73.76788 5870 ft 293 kts 24°
2026-05-09 00:01 40.61346 -73.75067 6730 ft 296 kts 36°
2026-05-09 00:01 40.62896 -73.73245 7681 ft 298 kts 37°
2026-05-09 00:01 40.64444 -73.71400 8618 ft 301 kts 37°
2026-05-09 00:02 40.66030 -73.69615 9545 ft 301 kts 28°
2026-05-09 00:02 40.67775 -73.68073 10372 ft 305 kts 25°
2026-05-09 00:02 40.69660 -73.66565 10788 ft 325 kts 22°
2026-05-09 00:02 40.71669 -73.65047 11184 ft 345 kts 22°
2026-05-09 00:03 40.73076 -73.63993 11670 ft 350 kts 21°
2026-05-09 00:03 40.75206 -73.62387 12579 ft 353 kts 21°
2026-05-09 00:03 40.78049 -73.60227 13788 ft 357 kts 20°
2026-05-09 00:03 40.80217 -73.58573 14570 ft 361 kts 20°
2026-05-09 00:04 40.81676 -73.57462 15011 ft 367 kts 21°
2026-05-09 00:04 40.84231 -73.55567 15762 ft 373 kts 20°
2026-05-09 00:04 40.85446 -73.54701 16131 ft 372 kts 18°
2026-05-09 00:05 40.87763 -73.53102 16780 ft 377 kts 12°
2026-05-09 00:05 40.88692 -73.52513 17041 ft 374 kts
2026-05-09 00:06 40.91081 -73.51180 17564 ft 382 kts 14°
2026-05-09 00:06 40.93438 -73.49570 18316 ft 388 kts 18°
2026-05-09 00:06 40.95813 -73.47753 18980 ft 393 kts 19°
2026-05-09 00:07 40.98149 -73.45892 19587 ft 399 kts 19°
2026-05-09 00:07 41.00555 -73.43962 20197 ft 404 kts 19°
2026-05-09 00:07 41.02969 -73.42043 20776 ft 408 kts 19°
2026-05-09 00:07 41.05445 -73.40097 21399 ft 412 kts 18°
2026-05-09 00:08 41.07903 -73.38182 22011 ft 416 kts 18°
2026-05-09 00:08 41.10435 -73.36222 22615 ft 420 kts 18°
2026-05-09 00:08 41.12971 -73.34265 23229 ft 425 kts 17°
2026-05-09 00:08 41.15525 -73.32279 23722 ft 431 kts 19°
2026-05-09 00:09 41.18031 -73.29913 24167 ft 448 kts 29°
2026-05-09 00:09 41.20282 -73.27050 24736 ft 456 kts 34°
2026-05-09 00:09 41.22433 -73.23870 25231 ft 465 kts 39°
2026-05-09 00:09 41.24484 -73.20493 25698 ft 471 kts 41°
2026-05-09 00:10 41.26456 -73.17037 26156 ft 477 kts 42°
2026-05-09 00:10 41.28450 -73.13448 26618 ft 481 kts 43°
2026-05-09 00:10 41.30421 -73.09883 27013 ft 485 kts 43°
2026-05-09 00:10 41.32449 -73.06225 27459 ft 490 kts 42°
2026-05-09 00:11 41.34496 -73.02554 27909 ft 493 kts 42°
2026-05-09 00:11 41.36529 -72.98926 28408 ft 496 kts 42°
2026-05-09 00:11 41.38616 -72.95213 28816 ft 500 kts 42°
2026-05-09 00:11 41.40693 -72.91523 29239 ft 503 kts 42°
2026-05-09 00:12 41.42812 -72.87757 29658 ft 507 kts 42°
2026-05-09 00:12 41.44946 -72.83958 30056 ft 511 kts 42°
2026-05-09 00:12 41.47064 -72.80181 30353 ft 515 kts 42°
2026-05-09 00:12 41.49226 -72.76322 30685 ft 518 kts 42°
2026-05-09 00:13 41.51384 -72.72486 30997 ft 521 kts 41°
2026-05-09 00:13 41.53571 -72.68652 31247 ft 525 kts 41°
2026-05-09 00:13 41.55796 -72.64739 31534 ft 528 kts 41°
2026-05-09 00:13 41.58006 -72.60825 31793 ft 530 kts 41°
2026-05-09 00:14 41.60234 -72.56847 32066 ft 533 kts 41°
2026-05-09 00:14 41.62443 -72.52882 32332 ft 536 kts 42°
2026-05-09 00:14 41.64678 -72.48855 32564 ft 539 kts 42°
2026-05-09 00:14 41.66921 -72.44804 32842 ft 542 kts 42°
2026-05-09 00:15 41.69169 -72.40735 33129 ft 543 kts 42°
2026-05-09 00:15 41.71401 -72.36694 33348 ft 546 kts 42°
2026-05-09 00:15 41.73667 -72.32587 33564 ft 548 kts 42°
2026-05-09 00:15 41.75948 -72.28446 33792 ft 550 kts 42°
2026-05-09 00:16 41.78198 -72.24351 34063 ft 550 kts 42°
2026-05-09 00:16 41.80474 -72.20201 34355 ft 549 kts 42°
2026-05-09 00:16 41.82712 -72.16122 34660 ft 549 kts 43°
2026-05-09 00:16 41.84976 -72.11986 34995 ft 546 kts 43°
2026-05-09 00:17 41.87225 -72.07871 35249 ft 546 kts 43°
2026-05-09 00:17 41.89479 -72.03745 35428 ft 547 kts 43°
2026-05-09 00:17 41.91695 -71.99678 35638 ft 547 kts 43°
2026-05-09 00:17 41.93955 -71.95523 35821 ft 547 kts 43°
2026-05-09 00:18 41.96209 -71.91371 36001 ft 548 kts 43°
2026-05-09 00:18 41.98433 -71.87268 36234 ft 548 kts 43°
2026-05-09 00:18 42.00677 -71.83118 36479 ft 547 kts 43°
2026-05-09 00:18 42.02917 -71.78971 36669 ft 547 kts 43°
2026-05-09 00:19 42.05134 -71.74864 36819 ft 547 kts 44°
2026-05-09 00:19 42.07384 -71.70689 37004 ft 547 kts 44°
2026-05-09 00:19 42.09600 -71.66574 37163 ft 548 kts 44°
2026-05-09 00:19 42.11841 -71.62407 37320 ft 548 kts 44°
2026-05-09 00:20 42.14091 -71.58218 37506 ft 548 kts 44°
2026-05-09 00:20 42.16302 -71.54093 37701 ft 547 kts 44°
2026-05-09 00:20 42.18528 -71.49935 37876 ft 546 kts 44°
2026-05-09 00:20 42.20752 -71.45775 38007 ft 547 kts 44°
2026-05-09 00:21 42.22988 -71.41590 38141 ft 547 kts 44°
2026-05-09 00:21 42.25193 -71.37456 38260 ft 547 kts 44°
2026-05-09 00:21 42.27434 -71.33251 38389 ft 548 kts 44°
2026-05-09 00:21 42.29659 -71.29071 38546 ft 547 kts 44°
2026-05-09 00:22 42.31886 -71.24937 38707 ft 543 kts 38°
2026-05-09 00:22 42.34231 -71.20923 38488 ft 545 kts 36°
2026-05-09 00:22 42.36631 -71.16910 38109 ft 551 kts 37°
2026-05-09 00:23 42.39477 -71.11957 38032 ft 552 kts 39°
2026-05-09 00:24 42.43550 -71.04494 38041 ft 551 kts 41°
2026-05-09 00:24 42.47714 -70.95818 38263 ft 545 kts 43°
2026-05-09 00:24 42.49851 -70.91616 38511 ft 534 kts 36°
2026-05-09 00:25 42.52135 -70.87683 38280 ft 536 kts 37°
2026-05-09 00:25 42.54430 -70.83661 37986 ft 542 kts 38°
2026-05-09 00:25 42.56561 -70.79387 37810 ft 549 kts 51°
2026-05-09 00:25 42.58042 -70.74592 38094 ft 547 kts 58°
2026-05-09 00:26 42.59748 -70.70140 38725 ft 521 kts 41°
2026-05-09 00:26 42.61883 -70.66350 38864 ft 505 kts 30°
2026-05-09 00:26 42.64254 -70.62847 38880 ft 498 kts 28°
2026-05-09 00:27 42.68515 -70.56611 39022 ft 479 kts 22°
2026-05-09 00:27 42.70732 -70.54861 39061 ft 436 kts 353°
2026-05-09 00:28 42.71878 -70.54707 38726 ft 404 kts 333°
2026-05-09 00:29 42.73063 -70.55209 37948 ft 374 kts 302°
2026-05-09 00:29 42.73806 -70.58149 36260 ft 355 kts 260°